BEIDOU-3 IGSO-1 (C38)

Last updated on Wed Mar 11 2026 00:03:31 GMT+0000 (Coordinated Universal Time)

1 44204U 19023A 26069.31331395 -.00000194 00000+0 00000+0 0 9993 2 44204 58.5622 38.6656 0025850 236.1610 124.9943 1.00269521 6225
UTC large
Height (km)
Speed (km/s)
/
Latitude / Longitude
Inclination (degrees)
Orbital Period (minutes)
Azimuth
Elevation
Range (km)
Doppler Factor

Next 0 passes for location: London (51.5072 / 0.1276)

Sorry there are no passes over London.